Year,Month,Day,Hour,Minute,Value (Times are PST for temperature in C)
2016,07,26,00,00,17.80
2016,07,26,00,01,17.80
2016,07,26,00,02,17.80
2016,07,26,00,03,17.80
2016,07,26,00,04,17.80
2016,07,26,00,05,17.80
2016,07,26,00,06,17.90
2016,07,26,00,07,17.90
2016,07,26,00,08,17.90
2016,07,26,00,09,17.90
2016,07,26,00,10,17.90
2016,07,26,00,11,17.90
2016,07,26,00,12,17.90
2016,07,26,00,13,17.90
2016,07,26,00,14,18.00
2016,07,26,00,15,18.10
2016,07,26,00,16,18.20
2016,07,26,00,17,18.30
2016,07,26,00,18,18.30
2016,07,26,00,19,18.40
2016,07,26,00,20,18.50
2016,07,26,00,21,18.50
2016,07,26,00,22,18.60
2016,07,26,00,23,18.60
2016,07,26,00,24,18.70
2016,07,26,00,25,18.70
2016,07,26,00,26,18.70
2016,07,26,00,27,18.80
2016,07,26,00,28,18.80
2016,07,26,00,29,18.80
2016,07,26,00,30,18.90
2016,07,26,00,31,18.90
2016,07,26,00,32,18.90
2016,07,26,00,33,18.90
2016,07,26,00,34,18.90
2016,07,26,00,35,18.90
2016,07,26,00,36,19.00
2016,07,26,00,37,19.00
2016,07,26,00,38,19.00
2016,07,26,00,39,19.00
2016,07,26,00,40,19.10
2016,07,26,00,41,19.10
2016,07,26,00,42,19.10
2016,07,26,00,43,19.20
2016,07,26,00,44,19.20
2016,07,26,00,45,19.20
2016,07,26,00,46,19.30
2016,07,26,00,47,19.30
2016,07,26,00,48,19.30
2016,07,26,00,49,19.40
2016,07,26,00,50,19.50
2016,07,26,00,51,19.50
2016,07,26,00,52,19.60
2016,07,26,00,53,19.70
2016,07,26,00,54,19.80
2016,07,26,00,55,19.90
2016,07,26,00,56,19.90
2016,07,26,00,57,20.00
2016,07,26,00,58,20.10
2016,07,26,00,59,20.20
2016,07,26,01,00,20.30
2016,07,26,01,01,20.30
2016,07,26,01,02,20.40
2016,07,26,01,03,20.50
2016,07,26,01,04,20.60
2016,07,26,01,05,20.70
2016,07,26,01,06,20.80
2016,07,26,01,07,20.80
2016,07,26,01,08,20.90
2016,07,26,01,09,20.90
2016,07,26,01,10,21.00
2016,07,26,01,11,21.10
2016,07,26,01,12,21.20
2016,07,26,01,13,21.20
2016,07,26,01,14,21.20
2016,07,26,01,15,21.30
2016,07,26,01,16,21.30
2016,07,26,01,17,21.30
2016,07,26,01,18,21.30
2016,07,26,01,19,21.30
2016,07,26,01,20,21.30
2016,07,26,01,21,21.30
2016,07,26,01,22,21.30
2016,07,26,01,23,21.30
2016,07,26,01,24,21.30
2016,07,26,01,25,21.20
2016,07,26,01,26,21.20
2016,07,26,01,27,21.20
2016,07,26,01,28,21.20
2016,07,26,01,29,21.10
2016,07,26,01,30,21.10
2016,07,26,01,31,21.10
2016,07,26,01,32,21.10
2016,07,26,01,33,21.10
2016,07,26,01,34,21.10
2016,07,26,01,35,21.10
2016,07,26,01,36,21.10
2016,07,26,01,37,21.10
2016,07,26,01,38,21.10
2016,07,26,01,39,21.10
2016,07,26,01,40,21.10
2016,07,26,01,41,21.10
2016,07,26,01,42,21.10
2016,07,26,01,43,21.10
2016,07,26,01,44,21.10
2016,07,26,01,45,21.10
2016,07,26,01,46,21.10
2016,07,26,01,47,21.10
2016,07,26,01,48,21.00
2016,07,26,01,49,21.00
2016,07,26,01,50,20.90
2016,07,26,01,51,20.90
2016,07,26,01,52,20.90
2016,07,26,01,53,20.90
2016,07,26,01,54,20.90
2016,07,26,01,55,21.00
2016,07,26,01,56,21.00
2016,07,26,01,57,21.00
2016,07,26,01,58,21.00
2016,07,26,01,59,21.10
2016,07,26,02,00,21.10
2016,07,26,02,01,21.10
2016,07,26,02,02,21.10
2016,07,26,02,03,21.10
2016,07,26,02,04,21.10
2016,07,26,02,05,21.10
2016,07,26,02,06,21.10
2016,07,26,02,07,21.10
2016,07,26,02,08,21.10
2016,07,26,02,09,21.10
2016,07,26,02,10,21.10
2016,07,26,02,11,21.10
2016,07,26,02,12,21.10
2016,07,26,02,13,21.10
2016,07,26,02,14,21.00
2016,07,26,02,15,21.00
2016,07,26,02,16,21.00
2016,07,26,02,17,21.10
2016,07,26,02,18,21.00
2016,07,26,02,19,21.00
2016,07,26,02,20,21.00
2016,07,26,02,21,21.00
2016,07,26,02,22,21.00
2016,07,26,02,23,21.00
2016,07,26,02,24,21.10
2016,07,26,02,25,21.10
2016,07,26,02,26,21.10
2016,07,26,02,27,21.00
2016,07,26,02,28,21.00
2016,07,26,02,29,21.00
2016,07,26,02,30,21.00
2016,07,26,02,31,21.00
2016,07,26,02,32,20.90
2016,07,26,02,33,20.90
2016,07,26,02,34,20.90
2016,07,26,02,35,20.90
2016,07,26,02,36,20.80
2016,07,26,02,37,20.80
2016,07,26,02,38,20.80
2016,07,26,02,39,20.80
2016,07,26,02,40,20.70
2016,07,26,02,41,20.70
2016,07,26,02,42,20.70
2016,07,26,02,43,20.70
2016,07,26,02,44,20.70
2016,07,26,02,45,20.70
2016,07,26,02,46,20.70
2016,07,26,02,47,20.70
2016,07,26,02,48,20.70
2016,07,26,02,49,20.70
2016,07,26,02,50,20.70
2016,07,26,02,51,20.70
2016,07,26,02,52,20.70
2016,07,26,02,53,20.70
2016,07,26,02,54,20.70
2016,07,26,02,55,20.70
2016,07,26,02,56,20.70
2016,07,26,02,57,20.70
2016,07,26,02,58,20.60
2016,07,26,02,59,20.60
2016,07,26,03,00,20.60
2016,07,26,03,01,20.60
2016,07,26,03,02,20.60
2016,07,26,03,03,20.50
2016,07,26,03,04,20.50
2016,07,26,03,05,20.50
2016,07,26,03,06,20.50
2016,07,26,03,07,20.40
2016,07,26,03,08,20.40
2016,07,26,03,09,20.40
2016,07,26,03,10,20.40
2016,07,26,03,11,20.40
2016,07,26,03,12,20.40
2016,07,26,03,13,20.40
2016,07,26,03,14,20.30
2016,07,26,03,15,20.30
2016,07,26,03,16,20.30
2016,07,26,03,17,20.30
2016,07,26,03,18,20.30
2016,07,26,03,19,20.30
2016,07,26,03,20,20.20
2016,07,26,03,21,20.20
2016,07,26,03,22,20.20
2016,07,26,03,23,20.20
2016,07,26,03,24,20.20
2016,07,26,03,25,20.10
2016,07,26,03,26,20.10
2016,07,26,03,27,20.10
2016,07,26,03,28,20.10
2016,07,26,03,29,20.00
2016,07,26,03,30,20.00
2016,07,26,03,31,20.00
2016,07,26,03,32,19.90
2016,07,26,03,33,19.90
2016,07,26,03,34,19.90
2016,07,26,03,35,19.90
2016,07,26,03,36,19.80
2016,07,26,03,37,19.80
2016,07,26,03,38,19.80
2016,07,26,03,39,19.70
2016,07,26,03,40,19.70
2016,07,26,03,41,19.70
2016,07,26,03,42,19.70
2016,07,26,03,43,19.70
2016,07,26,03,44,19.70
2016,07,26,03,45,19.70
2016,07,26,03,46,19.70
2016,07,26,03,47,19.60
2016,07,26,03,48,19.60
2016,07,26,03,49,19.60
2016,07,26,03,50,19.60
2016,07,26,03,51,19.60
2016,07,26,03,52,19.60
2016,07,26,03,53,19.50
2016,07,26,03,54,19.50
2016,07,26,03,55,19.50
2016,07,26,03,56,19.50
2016,07,26,03,57,19.50
2016,07,26,03,58,19.50
2016,07,26,03,59,19.40
2016,07,26,04,00,19.40
2016,07,26,04,01,19.40
2016,07,26,04,02,19.40
2016,07,26,04,03,19.40
2016,07,26,04,04,19.40
2016,07,26,04,05,19.40
2016,07,26,04,06,19.40
2016,07,26,04,07,19.40
2016,07,26,04,08,19.30
2016,07,26,04,09,19.30
2016,07,26,04,10,19.30
2016,07,26,04,11,19.30
2016,07,26,04,12,19.40
2016,07,26,04,13,19.40
2016,07,26,04,14,19.40
2016,07,26,04,15,19.40
2016,07,26,04,16,19.40
2016,07,26,04,17,19.40
2016,07,26,04,18,19.40
2016,07,26,04,19,19.40
2016,07,26,04,20,19.40
2016,07,26,04,21,19.40
2016,07,26,04,22,19.40
2016,07,26,04,23,19.40
2016,07,26,04,24,19.40
2016,07,26,04,25,19.40
2016,07,26,04,26,19.40
2016,07,26,04,27,19.40
2016,07,26,04,28,19.40
2016,07,26,04,29,19.40
2016,07,26,04,30,19.40
2016,07,26,04,31,19.40
2016,07,26,04,32,19.40
2016,07,26,04,33,19.40
2016,07,26,04,34,19.40
2016,07,26,04,35,19.40
2016,07,26,04,36,19.30
2016,07,26,04,37,19.30
2016,07,26,04,38,19.30
2016,07,26,04,39,19.30
2016,07,26,04,40,19.30
2016,07,26,04,41,19.30
2016,07,26,04,42,19.30
2016,07,26,04,43,19.20
2016,07,26,04,44,19.20
2016,07,26,04,45,19.20
2016,07,26,04,46,19.20
2016,07,26,04,47,19.20
2016,07,26,04,48,19.20
2016,07,26,04,49,19.20
2016,07,26,04,50,19.20
2016,07,26,04,51,19.20
2016,07,26,04,52,19.20
2016,07,26,04,53,19.20
2016,07,26,04,54,19.20
2016,07,26,04,55,19.20
2016,07,26,04,56,19.10
2016,07,26,04,57,19.10
2016,07,26,04,58,19.10
2016,07,26,04,59,19.10
2016,07,26,05,00,19.10
2016,07,26,05,01,19.10
2016,07,26,05,02,19.10
2016,07,26,05,03,19.10
2016,07,26,05,04,19.10
2016,07,26,05,05,19.00
2016,07,26,05,06,19.00
2016,07,26,05,07,19.00
2016,07,26,05,08,19.00
2016,07,26,05,09,18.90
2016,07,26,05,10,18.90
2016,07,26,05,11,18.90
2016,07,26,05,12,18.90
2016,07,26,05,13,18.80
2016,07,26,05,14,18.80
2016,07,26,05,15,18.80
2016,07,26,05,16,18.80
2016,07,26,05,17,18.80
2016,07,26,05,18,18.80
2016,07,26,05,19,18.80
2016,07,26,05,20,18.70
2016,07,26,05,21,18.70
2016,07,26,05,22,18.70
2016,07,26,05,23,18.70
2016,07,26,05,24,18.60
2016,07,26,05,25,18.60
2016,07,26,05,26,18.60
2016,07,26,05,27,18.60
2016,07,26,05,28,18.70
2016,07,26,05,29,18.70
2016,07,26,05,30,18.70
2016,07,26,05,31,18.70
2016,07,26,05,32,18.70
2016,07,26,05,33,18.70
2016,07,26,05,34,18.70
2016,07,26,05,35,18.70
2016,07,26,05,36,18.70
2016,07,26,05,37,18.70
2016,07,26,05,38,18.70
2016,07,26,05,39,18.70
2016,07,26,05,40,18.60
2016,07,26,05,41,18.60
2016,07,26,05,42,18.70
2016,07,26,05,43,18.60
2016,07,26,05,44,18.60
2016,07,26,05,45,18.60
2016,07,26,05,46,18.60
2016,07,26,05,47,18.60
2016,07,26,05,48,18.60
2016,07,26,05,49,18.50
2016,07,26,05,50,18.50
2016,07,26,05,51,18.50
2016,07,26,05,52,18.50
2016,07,26,05,53,18.50
2016,07,26,05,54,18.40
2016,07,26,05,55,18.40
2016,07,26,05,56,18.40
2016,07,26,05,57,18.40
2016,07,26,05,58,18.40
2016,07,26,05,59,18.40
2016,07,26,06,00,18.40
2016,07,26,06,01,18.40
2016,07,26,06,02,18.40
2016,07,26,06,03,18.40
2016,07,26,06,04,18.40
2016,07,26,06,05,18.40
2016,07,26,06,06,18.40
2016,07,26,06,07,18.40
2016,07,26,06,08,18.30
2016,07,26,06,09,18.30
2016,07,26,06,10,18.30
2016,07,26,06,11,18.30
2016,07,26,06,12,18.30
2016,07,26,06,13,18.30
2016,07,26,06,14,18.30
2016,07,26,06,15,18.30
2016,07,26,06,16,18.30
2016,07,26,06,17,18.30
2016,07,26,06,18,18.30
2016,07,26,06,19,18.30
2016,07,26,06,20,18.30
2016,07,26,06,21,18.30
2016,07,26,06,22,18.30
2016,07,26,06,23,18.30
2016,07,26,06,24,18.30
2016,07,26,06,25,18.30
2016,07,26,06,26,18.30
2016,07,26,06,27,18.30
2016,07,26,06,28,18.30
2016,07,26,06,29,18.30
2016,07,26,06,30,18.30
2016,07,26,06,31,18.30
2016,07,26,06,32,18.30
2016,07,26,06,33,18.30
2016,07,26,06,34,18.30
2016,07,26,06,35,18.30
2016,07,26,06,36,18.30
2016,07,26,06,37,18.30
2016,07,26,06,38,18.30
2016,07,26,06,39,18.30
2016,07,26,06,40,18.30
2016,07,26,06,41,18.30
2016,07,26,06,42,18.30
2016,07,26,06,43,18.30
2016,07,26,06,44,18.30
2016,07,26,06,45,18.30
2016,07,26,06,46,18.30
2016,07,26,06,47,18.30
2016,07,26,06,48,18.20
2016,07,26,06,49,18.20
2016,07,26,06,50,18.20
2016,07,26,06,51,18.20
2016,07,26,06,52,18.20
2016,07,26,06,53,18.20
2016,07,26,06,54,18.20
2016,07,26,06,55,18.20
2016,07,26,06,56,18.20
2016,07,26,06,57,18.20
2016,07,26,06,58,18.20
2016,07,26,06,59,18.20
2016,07,26,07,00,18.20
2016,07,26,07,01,18.30
2016,07,26,07,02,18.30
2016,07,26,07,03,18.30
2016,07,26,07,04,18.30
2016,07,26,07,05,18.30
2016,07,26,07,06,18.30
2016,07,26,07,07,18.30
2016,07,26,07,08,18.30
2016,07,26,07,09,18.30
2016,07,26,07,10,18.30
2016,07,26,07,11,18.30
2016,07,26,07,12,18.30
2016,07,26,07,13,18.30
2016,07,26,07,14,18.30
2016,07,26,07,15,18.30
2016,07,26,07,16,18.30
2016,07,26,07,17,18.30
2016,07,26,07,18,18.30
2016,07,26,07,19,18.30
2016,07,26,07,20,18.40
2016,07,26,07,21,18.40
2016,07,26,07,22,18.40
2016,07,26,07,23,18.40
2016,07,26,07,24,18.40
2016,07,26,07,25,18.40
2016,07,26,07,26,18.40
2016,07,26,07,27,18.40
2016,07,26,07,28,18.40
2016,07,26,07,29,18.40
2016,07,26,07,30,18.40
2016,07,26,07,31,18.40
2016,07,26,07,32,18.40
2016,07,26,07,33,18.40
2016,07,26,07,34,18.40
2016,07,26,07,35,18.40
2016,07,26,07,36,18.40
2016,07,26,07,37,18.40
2016,07,26,07,38,18.40
2016,07,26,07,39,18.40
2016,07,26,07,40,18.50
2016,07,26,07,41,18.50
2016,07,26,07,42,18.50
2016,07,26,07,43,18.50
2016,07,26,07,44,18.50
2016,07,26,07,45,18.50
2016,07,26,07,46,18.60
2016,07,26,07,47,18.60
2016,07,26,07,48,18.60
2016,07,26,07,49,18.60
2016,07,26,07,50,18.60
2016,07,26,07,51,18.60
2016,07,26,07,52,18.70
2016,07,26,07,53,18.70
2016,07,26,07,54,18.70
2016,07,26,07,55,18.70
2016,07,26,07,56,18.70
2016,07,26,07,57,18.70
2016,07,26,07,58,18.70
2016,07,26,07,59,18.70
2016,07,26,08,00,18.70
2016,07,26,08,01,18.70
2016,07,26,08,02,18.80
2016,07,26,08,03,18.80
2016,07,26,08,04,18.80
2016,07,26,08,05,18.80
2016,07,26,08,06,18.80
2016,07,26,08,07,18.80
2016,07,26,08,08,18.80
2016,07,26,08,09,18.80
2016,07,26,08,10,18.80
2016,07,26,08,11,18.80
2016,07,26,08,12,18.80
2016,07,26,08,13,18.90
2016,07,26,08,14,18.90
2016,07,26,08,15,18.90
2016,07,26,08,16,18.90
2016,07,26,08,17,18.90
2016,07,26,08,18,18.90
2016,07,26,08,19,18.90
2016,07,26,08,20,18.90
2016,07,26,08,21,18.90
2016,07,26,08,22,18.90
2016,07,26,08,23,18.90
2016,07,26,08,24,18.90
2016,07,26,08,25,18.90
2016,07,26,08,26,19.00
2016,07,26,08,27,19.00
2016,07,26,08,28,19.00
2016,07,26,08,29,19.10
2016,07,26,08,30,19.10
2016,07,26,08,31,19.20
2016,07,26,08,32,19.20
2016,07,26,08,33,19.20
2016,07,26,08,34,19.20
2016,07,26,08,35,19.30
2016,07,26,08,36,19.30
2016,07,26,08,37,19.30
2016,07,26,08,38,19.30
2016,07,26,08,39,19.30
2016,07,26,08,40,19.30
2016,07,26,08,41,19.40
2016,07,26,08,42,19.50
2016,07,26,08,43,19.50
2016,07,26,08,44,19.60
2016,07,26,08,45,19.60
2016,07,26,08,46,19.60
2016,07,26,08,47,19.60
2016,07,26,08,48,19.60
2016,07,26,08,49,19.60
2016,07,26,08,50,19.60
2016,07,26,08,51,19.70
2016,07,26,08,52,19.70
2016,07,26,08,53,19.70
2016,07,26,08,54,19.70
2016,07,26,08,55,19.70
2016,07,26,08,56,19.70
2016,07,26,08,57,19.70
2016,07,26,08,58,19.70
2016,07,26,08,59,19.80
2016,07,26,09,00,19.80
2016,07,26,09,01,19.70
2016,07,26,09,02,19.70
2016,07,26,09,03,19.60
2016,07,26,09,04,19.60
2016,07,26,09,05,19.60
2016,07,26,09,06,19.60
2016,07,26,09,07,19.60
2016,07,26,09,08,19.60
2016,07,26,09,09,19.60
2016,07,26,09,10,19.60
2016,07,26,09,11,19.60
2016,07,26,09,12,19.60
2016,07,26,09,13,19.60
2016,07,26,09,14,19.60
2016,07,26,09,15,19.70
2016,07,26,09,16,19.70
2016,07,26,09,17,19.70
2016,07,26,09,18,19.70
2016,07,26,09,19,19.70
2016,07,26,09,20,19.70
2016,07,26,09,21,19.70
2016,07,26,09,22,19.70
2016,07,26,09,23,19.70
2016,07,26,09,24,19.70
2016,07,26,09,25,19.80
2016,07,26,09,26,19.80
2016,07,26,09,27,19.80
2016,07,26,09,28,19.80
2016,07,26,09,29,19.80
2016,07,26,09,30,19.90
2016,07,26,09,31,19.90
2016,07,26,09,32,20.00
2016,07,26,09,33,20.00
2016,07,26,09,34,20.00
2016,07,26,09,35,20.10
2016,07,26,09,36,20.10
2016,07,26,09,37,20.20
2016,07,26,09,38,20.20
2016,07,26,09,39,20.30
2016,07,26,09,40,20.30
2016,07,26,09,41,20.30
2016,07,26,09,42,20.30
2016,07,26,09,43,20.30
2016,07,26,09,44,20.30
2016,07,26,09,45,20.30
2016,07,26,09,46,20.30
2016,07,26,09,47,20.40
2016,07,26,09,48,20.40
2016,07,26,09,49,20.40
2016,07,26,09,50,20.30
2016,07,26,09,51,20.30
2016,07,26,09,52,20.30
2016,07,26,09,53,20.30
2016,07,26,09,54,20.30
2016,07,26,09,55,20.30
2016,07,26,09,56,20.40
2016,07,26,09,57,20.40
2016,07,26,09,58,20.40
2016,07,26,09,59,20.40
2016,07,26,10,00,20.40
2016,07,26,10,01,20.40
2016,07,26,10,02,20.40
2016,07,26,10,03,20.40
2016,07,26,10,04,20.40
2016,07,26,10,05,20.40
2016,07,26,10,06,20.50
2016,07,26,10,07,20.50
2016,07,26,10,08,20.40
2016,07,26,10,09,20.30
2016,07,26,10,10,20.30
2016,07,26,10,11,20.20
2016,07,26,10,12,20.20
2016,07,26,10,13,20.20
2016,07,26,10,14,20.20
2016,07,26,10,15,20.20
2016,07,26,10,16,20.20
2016,07,26,10,17,20.20
2016,07,26,10,18,20.20
2016,07,26,10,19,20.20
2016,07,26,10,20,20.20
2016,07,26,10,21,20.20
2016,07,26,10,22,20.20
2016,07,26,10,23,20.20
2016,07,26,10,24,20.30
2016,07,26,10,25,20.30
2016,07,26,10,26,20.30
2016,07,26,10,27,20.30
2016,07,26,10,28,20.30
2016,07,26,10,29,20.30
2016,07,26,10,30,20.30
2016,07,26,10,31,20.30
2016,07,26,10,32,20.30
2016,07,26,10,33,20.30
2016,07,26,10,34,20.30
2016,07,26,10,35,20.30
2016,07,26,10,36,20.30
2016,07,26,10,37,20.30
2016,07,26,10,38,20.30
2016,07,26,10,39,20.20
2016,07,26,10,40,20.20
2016,07,26,10,41,20.20
2016,07,26,10,42,20.20
2016,07,26,10,43,20.20
2016,07,26,10,44,20.20
2016,07,26,10,45,20.20
2016,07,26,10,46,20.20
2016,07,26,10,47,20.20
2016,07,26,10,48,20.20
2016,07,26,10,49,20.30
2016,07,26,10,50,20.40
2016,07,26,10,51,20.40
2016,07,26,10,52,20.50
2016,07,26,10,53,20.50
2016,07,26,10,54,20.50
2016,07,26,10,55,20.50
2016,07,26,10,56,20.60
2016,07,26,10,57,20.60
2016,07,26,10,58,20.60
2016,07,26,10,59,20.50
2016,07,26,11,00,20.60
2016,07,26,11,01,20.60
2016,07,26,11,02,20.60
2016,07,26,11,03,20.60
2016,07,26,11,04,20.60
2016,07,26,11,05,20.70
2016,07,26,11,06,20.70
2016,07,26,11,07,20.80
2016,07,26,11,08,20.80
2016,07,26,11,09,20.80
2016,07,26,11,10,20.80
2016,07,26,11,11,20.80
2016,07,26,11,12,20.80
2016,07,26,11,13,20.80
2016,07,26,11,14,20.90
2016,07,26,11,15,20.90
2016,07,26,11,16,20.90
2016,07,26,11,17,20.90
2016,07,26,11,18,20.90
2016,07,26,11,19,20.90
2016,07,26,11,20,20.90
2016,07,26,11,21,20.90
2016,07,26,11,22,21.00
2016,07,26,11,23,21.00
2016,07,26,11,24,21.10
2016,07,26,11,25,21.20
2016,07,26,11,26,21.20
2016,07,26,11,27,21.30
2016,07,26,11,28,21.30
2016,07,26,11,29,21.30
2016,07,26,11,30,21.40
2016,07,26,11,31,21.40
2016,07,26,11,32,21.50
2016,07,26,11,33,21.50
2016,07,26,11,34,21.60
2016,07,26,11,35,21.60
2016,07,26,11,36,21.70
2016,07,26,11,37,21.70
2016,07,26,11,38,21.70
2016,07,26,11,39,21.80
2016,07,26,11,40,21.90
2016,07,26,11,41,21.90
2016,07,26,11,42,22.00
2016,07,26,11,43,22.00
2016,07,26,11,44,22.10
2016,07,26,11,45,22.10
2016,07,26,11,46,22.10
2016,07,26,11,47,22.10
2016,07,26,11,48,22.00
2016,07,26,11,49,21.90
2016,07,26,11,50,21.80
2016,07,26,11,51,21.80
2016,07,26,11,52,21.70
2016,07,26,11,53,21.60
2016,07,26,11,54,21.50
2016,07,26,11,55,21.50
2016,07,26,11,56,21.40
2016,07,26,11,57,21.40
2016,07,26,11,58,21.50
2016,07,26,11,59,21.50
2016,07,26,12,00,21.60
2016,07,26,12,01,21.70
2016,07,26,12,02,21.80
2016,07,26,12,03,21.90
2016,07,26,12,04,21.90
2016,07,26,12,05,22.00
2016,07,26,12,06,22.00
2016,07,26,12,07,21.90
2016,07,26,12,08,22.00
2016,07,26,12,09,22.00
2016,07,26,12,10,22.10
2016,07,26,12,11,22.10
2016,07,26,12,12,22.10
2016,07,26,12,13,22.00
2016,07,26,12,14,22.00
2016,07,26,12,15,21.90
2016,07,26,12,16,21.90
2016,07,26,12,17,21.90
2016,07,26,12,18,21.90
2016,07,26,12,19,21.90
2016,07,26,12,20,22.00
2016,07,26,12,21,22.10
2016,07,26,12,22,22.10
2016,07,26,12,23,22.20
2016,07,26,12,24,22.20
2016,07,26,12,25,22.20
2016,07,26,12,26,22.20
2016,07,26,12,27,22.20
2016,07,26,12,28,22.20
2016,07,26,12,29,22.20
2016,07,26,12,30,22.20
2016,07,26,12,31,22.30
2016,07,26,12,32,22.30
2016,07,26,12,33,22.30
2016,07,26,12,34,22.30
2016,07,26,12,35,22.30
2016,07,26,12,36,22.30
2016,07,26,12,37,22.30
2016,07,26,12,38,22.30
2016,07,26,12,39,22.40
2016,07,26,12,40,22.40
2016,07,26,12,41,22.40
2016,07,26,12,42,22.40
2016,07,26,12,43,22.50
2016,07,26,12,44,22.40
2016,07,26,12,45,22.40
2016,07,26,12,46,22.30
2016,07,26,12,47,22.30
2016,07,26,12,48,22.30
2016,07,26,12,49,22.30
2016,07,26,12,50,22.30
2016,07,26,12,51,22.30
2016,07,26,12,52,22.20
2016,07,26,12,53,22.30
2016,07,26,12,54,22.30
2016,07,26,12,55,22.30
2016,07,26,12,56,22.20
2016,07,26,12,57,22.20
2016,07,26,12,58,22.20
2016,07,26,12,59,22.20
2016,07,26,13,00,22.20
2016,07,26,13,01,22.30
2016,07,26,13,02,22.30
2016,07,26,13,03,22.30
2016,07,26,13,04,22.40
2016,07,26,13,05,22.40
2016,07,26,13,06,22.50
2016,07,26,13,07,22.60
2016,07,26,13,08,22.60
2016,07,26,13,09,22.70
2016,07,26,13,10,22.70
2016,07,26,13,11,22.70
2016,07,26,13,12,22.70
2016,07,26,13,13,22.80
2016,07,26,13,14,22.70
2016,07,26,13,15,22.70
2016,07,26,13,16,22.80
2016,07,26,13,17,22.80
2016,07,26,13,18,22.80
2016,07,26,13,19,22.90
2016,07,26,13,20,23.00
2016,07,26,13,21,23.00
2016,07,26,13,22,23.00
2016,07,26,13,23,23.00
2016,07,26,13,24,23.00
2016,07,26,13,25,23.00
2016,07,26,13,26,23.00
2016,07,26,13,27,23.10
2016,07,26,13,28,23.10
2016,07,26,13,29,23.10
2016,07,26,13,30,23.00
2016,07,26,13,31,23.00
2016,07,26,13,32,22.90
2016,07,26,13,33,22.90
2016,07,26,13,34,22.80
2016,07,26,13,35,22.80
2016,07,26,13,36,22.80
2016,07,26,13,37,22.70
2016,07,26,13,38,22.70
2016,07,26,13,39,22.70
2016,07,26,13,40,22.70
2016,07,26,13,41,22.70
2016,07,26,13,42,22.70
2016,07,26,13,43,22.70
2016,07,26,13,44,22.70
2016,07,26,13,45,22.60
2016,07,26,13,46,22.60
2016,07,26,13,47,22.50
2016,07,26,13,48,22.50
2016,07,26,13,49,22.40
2016,07,26,13,50,22.40
2016,07,26,13,51,22.40
2016,07,26,13,52,22.40
2016,07,26,13,53,22.50
2016,07,26,13,54,22.50
2016,07,26,13,55,22.50
2016,07,26,13,56,22.50
2016,07,26,13,57,22.60
2016,07,26,13,58,22.60
2016,07,26,13,59,22.70
2016,07,26,14,00,22.70
2016,07,26,14,01,22.80
2016,07,26,14,02,22.80
2016,07,26,14,03,22.90
2016,07,26,14,04,22.90
2016,07,26,14,05,22.90
2016,07,26,14,06,23.00
2016,07,26,14,07,23.00
2016,07,26,14,08,23.00
2016,07,26,14,09,23.00
2016,07,26,14,10,23.00
2016,07,26,14,11,23.00
2016,07,26,14,12,23.00
2016,07,26,14,13,23.00
2016,07,26,14,14,23.00
2016,07,26,14,15,23.10
2016,07,26,14,16,23.10
2016,07,26,14,17,23.10
2016,07,26,14,18,23.10
2016,07,26,14,19,23.20
2016,07,26,14,20,23.30
2016,07,26,14,21,23.30
2016,07,26,14,22,23.40
2016,07,26,14,23,23.30
2016,07,26,14,24,23.30
2016,07,26,14,25,23.30
2016,07,26,14,26,23.30
2016,07,26,14,27,23.30
2016,07,26,14,28,23.30
2016,07,26,14,29,23.20
2016,07,26,14,30,23.10
2016,07,26,14,31,22.90
2016,07,26,14,32,22.80
2016,07,26,14,33,22.80
2016,07,26,14,34,22.80
2016,07,26,14,35,22.80
2016,07,26,14,36,22.90
2016,07,26,14,37,23.00
2016,07,26,14,38,23.10
2016,07,26,14,39,23.20
2016,07,26,14,40,23.20
2016,07,26,14,41,23.30
2016,07,26,14,42,23.20
2016,07,26,14,43,23.20
2016,07,26,14,44,23.30
2016,07,26,14,45,23.30
2016,07,26,14,46,23.20
2016,07,26,14,47,23.20
2016,07,26,14,48,23.20
2016,07,26,14,49,23.20
2016,07,26,14,50,23.20
2016,07,26,14,51,23.20
2016,07,26,14,52,23.20
2016,07,26,14,53,23.20
2016,07,26,14,54,23.20
2016,07,26,14,55,23.30
2016,07,26,14,56,23.20
2016,07,26,14,57,23.20
2016,07,26,14,58,23.30
2016,07,26,14,59,23.30
2016,07,26,15,00,23.30
2016,07,26,15,01,23.20
2016,07,26,15,02,23.20
2016,07,26,15,03,23.20
2016,07,26,15,04,23.10
2016,07,26,15,05,23.10
2016,07,26,15,06,23.20
2016,07,26,15,07,23.20
2016,07,26,15,08,23.30
2016,07,26,15,09,23.40
2016,07,26,15,10,23.50
2016,07,26,15,11,23.50
2016,07,26,15,12,23.40
2016,07,26,15,13,23.30
2016,07,26,15,14,23.30
2016,07,26,15,15,23.30
2016,07,26,15,16,23.30
2016,07,26,15,17,23.40
2016,07,26,15,18,23.40
2016,07,26,15,19,23.40
2016,07,26,15,20,23.50
2016,07,26,15,21,23.60
2016,07,26,15,22,23.80
2016,07,26,15,23,23.80
2016,07,26,15,24,23.80
2016,07,26,15,25,23.80
2016,07,26,15,26,23.70
2016,07,26,15,27,23.70
2016,07,26,15,28,23.60
2016,07,26,15,29,23.60
2016,07,26,15,30,23.50
2016,07,26,15,31,23.40
2016,07,26,15,32,23.40
2016,07,26,15,33,23.30
2016,07,26,15,34,23.30
2016,07,26,15,35,23.30
2016,07,26,15,36,23.30
2016,07,26,15,37,23.30
2016,07,26,15,38,23.30
2016,07,26,15,39,23.30
2016,07,26,15,40,23.40
2016,07,26,15,41,23.40
2016,07,26,15,42,23.40
2016,07,26,15,43,23.50
2016,07,26,15,44,23.40
2016,07,26,15,45,23.40
2016,07,26,15,46,23.30
2016,07,26,15,47,23.30
2016,07,26,15,48,23.30
2016,07,26,15,49,23.40
2016,07,26,15,50,23.40
2016,07,26,15,51,23.40
2016,07,26,15,52,23.30
2016,07,26,15,53,23.30
2016,07,26,15,54,23.30
2016,07,26,15,55,23.20
2016,07,26,15,56,23.20
2016,07,26,15,57,23.20
2016,07,26,15,58,23.10
2016,07,26,15,59,23.10
2016,07,26,16,00,23.10
2016,07,26,16,01,23.20
2016,07,26,16,02,23.10
2016,07,26,16,03,23.10
2016,07,26,16,04,23.10
2016,07,26,16,05,23.10
2016,07,26,16,06,23.20
2016,07,26,16,07,23.20
2016,07,26,16,08,23.30
2016,07,26,16,09,23.40
2016,07,26,16,10,23.50
2016,07,26,16,11,23.60
2016,07,26,16,12,23.60
2016,07,26,16,13,23.60
2016,07,26,16,14,23.60
2016,07,26,16,15,23.60
2016,07,26,16,16,23.60
2016,07,26,16,17,23.60
2016,07,26,16,18,23.60
2016,07,26,16,19,23.60
2016,07,26,16,20,23.60
2016,07,26,16,21,23.60
2016,07,26,16,22,23.50
2016,07,26,16,23,23.50
2016,07,26,16,24,23.40
2016,07,26,16,25,23.40
2016,07,26,16,26,23.40
2016,07,26,16,27,23.40
2016,07,26,16,28,23.40
2016,07,26,16,29,23.50
2016,07,26,16,30,23.50
2016,07,26,16,31,23.50
2016,07,26,16,32,23.50
2016,07,26,16,33,23.40
2016,07,26,16,34,23.40
2016,07,26,16,35,23.40
2016,07,26,16,36,23.40
2016,07,26,16,37,23.40
2016,07,26,16,38,23.40
2016,07,26,16,39,23.50
2016,07,26,16,40,23.50
2016,07,26,16,41,23.50
2016,07,26,16,42,23.60
2016,07,26,16,43,23.60
2016,07,26,16,44,23.60
2016,07,26,16,45,23.70
2016,07,26,16,46,23.70
2016,07,26,16,47,23.70
2016,07,26,16,48,23.80
2016,07,26,16,49,23.80
2016,07,26,16,50,23.90
2016,07,26,16,51,23.90
2016,07,26,16,52,23.90
2016,07,26,16,53,23.90
2016,07,26,16,54,23.80
2016,07,26,16,55,23.80
2016,07,26,16,56,23.90
2016,07,26,16,57,23.90
2016,07,26,16,58,23.90
2016,07,26,16,59,24.00
2016,07,26,17,00,24.00
2016,07,26,17,01,24.00
2016,07,26,17,02,24.00
2016,07,26,17,03,23.90
2016,07,26,17,04,23.90
2016,07,26,17,05,23.90
2016,07,26,17,06,24.00
2016,07,26,17,07,24.00
2016,07,26,17,08,24.10
2016,07,26,17,09,24.20
2016,07,26,17,10,24.30
2016,07,26,17,11,24.40
2016,07,26,17,12,24.40
2016,07,26,17,13,24.50
2016,07,26,17,14,24.50
2016,07,26,17,15,24.70
2016,07,26,17,16,24.80
2016,07,26,17,17,24.90
2016,07,26,17,18,25.10
2016,07,26,17,19,25.30